This demonstration page uses our WeatherBlox Daily Observations layout. Learn more.

Left ArrowRight Arrow

Hourly Observations for June 3, 2018

Temp ( °F °C ) Dew Point ( °F °C ) Humidity (%) Winds ( mph kmh ) Pressure ( in mb ) Visibility ( mi km ) Precip ( " mm )
12:53 am 00:53 Clear 60 15.6 54 12.2 80 80 Calm 30.14 1021 10 16 0.00 0.00
1:53 am 01:53 Clear 60 15.6 53 11.7 78 78 W 3 6 30.14 1021 10 16 0.00 0.00
2:53 am 02:53 Clear 57 13.9 51 10.6 81 81 WNW 6 9 30.14 1021 10 16 0.00 0.00
3:53 am 03:53 Clear 56 13.3 51 10.6 84 84 WNW 5 7 30.15 1021 10 16 0.00 0.00
4:53 am 04:53 Clear 57 13.9 51 10.6 81 81 WSW 6 9 30.17 1022 10 16 0.00 0.00
5:53 am 05:53 Clear 57 13.9 49 9.4 74 74 W 6 9 30.19 1022 10 16 0.00 0.00
6:53 am 06:53 Sunny 56 13.3 51 10.6 84 84 W 5 7 30.20 1023 10 16 0.00 0.00
7:53 am 07:53 Sunny 62 16.7 55 12.8 78 78 W 5 7 30.21 1023 10 16 0.00 0.00
8:53 am 08:53 Sunny 68 20 52 11.1 57 57 WNW 8 13 30.21 1023 10 16 0.00 0.00
9:53 am 09:53 Sunny 72 22.2 49 9.4 44 44 NNW 9 15 30.22 1023 10 16 0.00 0.00
10:53 am 10:53 Sunny 74 23.3 49 9.4 41 41 NNW 9 15 30.21 1023 10 16 0.00 0.00
11:53 am 11:53 Sunny 76 24.4 48 8.9 37 37 NNW 7 11 30.22 1023 10 16 0.00 0.00
12:53 pm 12:53 Sunny 77 25 48 8.9 36 36 NNW 9 15 30.21 1023 10 16 0.00 0.00
1:53 pm 13:53 Sunny 78 25.6 48 8.9 35 35 N 6 9 30.19 1022 10 16 0.00 0.00
2:53 pm 14:53 Sunny 79 26.1 48 8.9 34 34 N 6 9 30.17 1022 10 16 0.00 0.00
3:53 pm 15:53 Sunny 79 26.1 46 7.8 31 31 Calm 30.15 1021 10 16 0.00 0.00
4:53 pm 16:53 Sunny 79 26.1 46 7.8 31 31 Calm 30.13 1020 10 16 0.00 0.00
5:53 pm 17:53 Sunny 80 26.7 46 7.8 30 30 N 7 11 30.12 1020 10 16 0.00 0.00
6:53 pm 18:53 Sunny 80 26.7 47 8.3 31 31 N 7 11 30.11 1020 10 16 0.00 0.00
7:53 pm 19:53 Sunny 78 25.6 47 8.3 33 33 ENE 6 9 30.09 1019 10 16 0.00 0.00
8:53 pm 20:53 Sunny 73 22.8 49 9.4 43 43 E 3 6 30.09 1019 9 14 0.00 0.00
9:53 pm 21:53 Clear 69 20.6 50 10 51 51 ESE 5 7 30.10 1019 10 16 0.00 0.00
10:53 pm 22:53 Clear 67 19.4 51 10.6 57 57 ESE 5 7 30.10 1019 10 16 0.00 0.00
11:53 pm 23:53 Clear 66 18.9 50 10 56 56 ESE 6 9 30.07 1018 10 16 0.00 0.00

Powered by AerisWeather